Home   Weather   Ceuta   Past weeks

Flag for Spain Past Weather in Ceuta, Ceuta, Spain — Yesterday and Last 2 Weeks

Now
63 °F

Passing clouds.


Feels Like: 63 °F
Forecast: 57 / 64 °F
Wind: 16 mph from East

Location: Gibraltar Airport

Current Time: Dec 11, 2016 at 1:19:53 am

Latest Report: Dec 10, 2016 at 11:50 pm


Visibility: N/A

Pressure: 30.33 "Hg

Humidity: 88%

Dew Point: 59 °F

Location of CeutaLocation

Past Weather in Ceuta — Graph

°F

Ceuta Temperature Yesterday

Maximum temperature yesterday: 64 °F (at 11:50 am)
Minimum temperature yesterday: 63 °F (at 12:50 am)
Average temperature yesterday: 63 °F

High & Low Weather Summary for the Past Weeks

 TemperatureHumidityPressure
High64 °F (Nov 30, 11:50 am)100% (Dec 1, 6:50 pm)30.42 "Hg (Dec 1, 6:50 pm)
Low52 °F (Nov 29, 4:50 am)64% (Nov 28, 12:50 pm)29.65 "Hg (Nov 26, 3:50 am)
Average61 °F86%30.07 "Hg
* Reported Nov 25 11:50 pm — Dec 10 11:50 pm, Ceuta, Weather by CustomWeather, © 2016

Note: Actual official high and low records may vary slightly from our data, if they occured in-between our weather recording intervals... More about our weather records

Advertising

Ceuta Weather History for the Previous 24 Hours

Scroll right to see more
 ConditionsComfort  
Time TempWeatherWind HumidityBarometerVisibility
11:50 pm
Sat, Dec 10
63 °FPassing clouds.16 mph88%30.33 "HgN/A
10:50 pm63 °FOvercast.18 mph88%30.33 "HgN/A
9:50 pm63 °FPassing clouds.17 mph83%30.33 "HgN/A
8:50 pm63 °FPassing clouds.17 mph83%30.33 "HgN/A
7:50 pm63 °FPartly cloudy.17 mph88%30.33 "HgN/A
6:50 pm63 °FPassing clouds.15 mph88%30.33 "HgN/A
5:50 pm63 °FPartly sunny.14 mph88%30.33 "HgN/A
4:50 pm63 °FPartly sunny.14 mph88%30.33 "HgN/A
3:50 pm63 °FPartly sunny.12 mph88%30.33 "HgN/A
2:50 pm63 °FPartly sunny.15 mph88%30.33 "HgN/A
1:50 pm63 °FPassing clouds.15 mph88%30.33 "HgN/A
12:50 pm64 °FScattered clouds.12 mph78%30.36 "HgN/A
11:50 am64 °FPartly sunny.16 mph78%30.39 "HgN/A
10:50 am63 °FPartly sunny.16 mph83%30.39 "HgN/A
9:50 am63 °FPartly sunny.16 mph83%30.36 "HgN/A
8:50 am63 °FPartly sunny.16 mph83%30.36 "HgN/A
7:50 am63 °FPassing clouds.16 mph83%30.33 "HgN/A
6:50 am63 °FPassing clouds.14 mph83%30.33 "HgN/A
5:50 am63 °FPassing clouds.20 mph83%30.33 "HgN/A
4:50 am63 °FPassing clouds.21 mph83%30.36 "HgN/A
3:50 am63 °FPassing clouds.21 mph83%30.36 "HgN/A
2:50 am63 °FPassing clouds.21 mph83%30.36 "HgN/A
1:50 am63 °FPassing clouds.22 mph83%30.39 "HgN/A
Weather by CustomWeather, © 2016

See weather overviewHow to use our weather pages